TimePST,TemperatureF,Dew PointF,Humidity,Sea Level PressureIn,VisibilityMPH,Wind Direction,Wind SpeedMPH,Gust SpeedMPH,PrecipitationIn,Events,Conditions,WindDirDegrees,DateUTC
12:08 AM,44.6,44.6,100,30.25,8.0,East,2.3,-,N/A,Rain,Light Rain,90,2013-02-28 08:08:00
12:18 AM,44.6,44.6,100,30.25,7.0,ENE,2.3,-,N/A,Rain,Light Rain,60,2013-02-28 08:18:00
12:48 AM,44.6,42.8,93,30.25,7.0,East,3.5,-,N/A,Rain,Light Rain,90,2013-02-28 08:48:00
12:53 AM,44.6,42.8,93,30.25,6.0,East,3.5,-,N/A,Rain,Light Rain,100,2013-02-28 08:53:00
12:58 AM,43.9,43.7,99,30.27,7.0,East,2.3,-,0.01,Rain,Light Rain,100,2013-02-28 08:58:00
1:08 AM,44.6,44.6,100,30.25,7.0,East,2.3,-,N/A,Rain,Light Rain,80,2013-02-28 09:08:00
1:23 AM,44.6,42.8,93,30.24,6.0,ENE,3.5,-,N/A,Rain,Light Rain,60,2013-02-28 09:23:00
1:58 AM,44.6,42.8,93,30.25,6.0,NE,1.2,-,0.03,Rain,Light Rain,50,2013-02-28 09:58:00
2:08 AM,44.6,42.8,93,30.24,6.0,Calm,Calm,-,N/A,Rain,Light Rain,0,2013-02-28 10:08:00
2:58 AM,43.5,43.3,99,30.24,7.0,ENE,3.5,-,0.04,Rain,Light Rain,70,2013-02-28 10:58:00
3:58 AM,43.3,43.2,99,30.23,10.0,East,3.5,-,0.02,Rain,Light Rain,90,2013-02-28 11:58:00
4:58 AM,42.8,42.6,99,30.23,8.0,NNE,4.6,-,0.07,Rain,Rain,20,2013-02-28 12:58:00
5:48 AM,42.8,42.8,100,30.20,10.0,East,2.3,-,N/A,Rain,Light Rain,80,2013-02-28 13:48:00
5:58 AM,42.4,42.3,99,30.22,10.0,East,2.3,-,0.05,Rain,Light Rain,90,2013-02-28 13:58:00
6:58 AM,42.6,42.4,99,30.21,10.0,East,1.2,-,0.03,Rain,Light Rain,100,2013-02-28 14:58:00
7:53 AM,42.8,42.8,100,30.19,9.0,NE,2.3,-,N/A,Rain,Light Rain,40,2013-02-28 15:53:00
7:58 AM,43.0,42.8,99,30.21,10.0,NE,1.2,-,0.02,Rain,Light Rain,40,2013-02-28 15:58:00
8:23 AM,42.8,42.8,100,30.20,5.0,Calm,Calm,-,N/A,Rain,Light Rain,0,2013-02-28 16:23:00
8:30 AM,42.8,42.8,100,30.20,5.0,Calm,Calm,-,N/A,Rain,Light Rain,0,2013-02-28 16:30:00
8:58 AM,43.2,43.0,99,30.23,4.0,Calm,Calm,-,0.03,Rain,Light Rain,0,2013-02-28 16:58:00
9:03 AM,42.8,42.8,100,30.21,4.0,Calm,Calm,-,N/A,Rain,Light Rain,0,2013-02-28 17:03:00
9:28 AM,44.6,42.8,93,30.21,7.0,SSE,2.3,-,N/A,Rain,Light Rain,160,2013-02-28 17:28:00
9:58 AM,44.4,44.2,99,30.23,7.0,SSE,2.3,-,0.04,Rain,Light Rain,150,2013-02-28 17:58:00
10:58 AM,46.9,46.8,99,30.24,10.0,WSW,4.6,-,0.02,Rain,Light Rain,240,2013-02-28 18:58:00
11:33 AM,48.2,48.2,100,30.23,9.0,South,5.8,-,N/A,,Light Drizzle,190,2013-02-28 19:33:00
11:58 AM,49.1,48.9,99,30.25,10.0,South,6.9,-,0.01,Rain,Light Rain,180,2013-02-28 19:58:00
12:28 PM,50.0,50.0,100,30.24,10.0,South,6.9,-,N/A,Rain,Light Rain,170,2013-02-28 20:28:00
12:48 PM,51.8,50.0,94,30.23,10.0,South,8.1,-,N/A,Rain,Light Rain,170,2013-02-28 20:48:00
12:49 PM,51.8,50.0,94,30.23,10.0,SSE,8.1,-,N/A,Rain,Light Rain,160,2013-02-28 20:49:00
12:58 PM,51.3,50.9,99,30.25,9.0,South,5.8,-,0.01,Rain,Light Rain,180,2013-02-28 20:58:00
1:08 PM,51.8,51.8,100,30.24,9.0,South,6.9,-,N/A,Rain,Light Rain,190,2013-02-28 21:08:00
1:13 PM,51.8,51.8,100,30.23,9.0,South,6.9,-,N/A,Rain,Light Rain,180,2013-02-28 21:13:00
1:16 PM,51.8,51.8,100,30.23,9.0,South,8.1,-,N/A,Rain,Light Rain,180,2013-02-28 21:16:00
1:21 PM,51.8,51.8,100,30.23,10.0,South,8.1,-,N/A,Rain,Light Rain,180,2013-02-28 21:21:00
1:26 PM,51.8,51.8,100,30.23,10.0,South,8.1,-,N/A,Rain,Light Rain,180,2013-02-28 21:26:00
1:30 PM,51.8,51.8,100,30.23,10.0,South,6.9,-,N/A,,Overcast,180,2013-02-28 21:30:00
1:35 PM,51.8,51.8,100,30.23,10.0,South,5.8,-,N/A,,Overcast,180,2013-02-28 21:35:00
1:36 PM,51.8,51.8,100,30.23,10.0,South,5.8,-,N/A,,Light Drizzle,170,2013-02-28 21:36:00
1:43 PM,51.8,51.8,100,30.23,10.0,SE,5.8,-,N/A,,Overcast,140,2013-02-28 21:43:00
1:58 PM,52.0,51.8,99,30.26,10.0,South,5.8,-,0.01,,Overcast,170,2013-02-28 21:58:00
2:16 PM,51.8,51.8,100,30.25,10.0,SSE,4.6,-,N/A,Rain,Light Rain,150,2013-02-28 22:16:00
2:21 PM,51.8,51.8,100,30.25,10.0,SSE,3.5,-,N/A,Rain,Light Rain,160,2013-02-28 22:21:00
2:32 PM,51.8,51.8,100,30.25,8.0,South,6.9,-,N/A,Rain,Light Rain,170,2013-02-28 22:32:00
2:52 PM,51.8,51.8,100,30.26,3.0,South,5.8,-,N/A,Rain,Light Rain,170,2013-02-28 22:52:00
2:57 PM,51.8,51.8,100,30.26,2.5,South,5.8,-,N/A,Rain,Light Rain,170,2013-02-28 22:57:00
2:58 PM,51.8,51.6,99,30.28,2.5,South,5.8,-,0.06,Rain,Light Rain,170,2013-02-28 22:58:00
3:03 PM,51.8,51.8,100,30.27,3.0,South,5.8,-,N/A,Rain,Light Rain,180,2013-02-28 23:03:00
3:08 PM,51.8,51.8,100,30.27,5.0,SSW,6.9,-,N/A,Rain,Light Rain,200,2013-02-28 23:08:00
3:23 PM,51.8,51.8,100,30.28,6.0,South,4.6,-,N/A,Rain,Light Rain,170,2013-02-28 23:23:00
3:33 PM,51.8,51.8,100,30.28,6.0,SSE,4.6,-,N/A,Rain,Light Rain,150,2013-02-28 23:33:00
3:48 PM,51.8,51.8,100,30.28,5.0,SSE,5.8,-,N/A,Rain,Light Rain,160,2013-02-28 23:48:00
3:58 PM,52.0,51.8,99,30.30,10.0,SSE,5.8,-,0.06,Rain,Light Rain,150,2013-02-28 23:58:00
4:18 PM,51.8,51.8,100,30.29,7.0,South,6.9,-,N/A,Rain,Light Rain,170,2013-03-01 00:18:00
4:23 PM,51.8,51.8,100,30.29,9.0,South,5.8,-,N/A,Rain,Light Rain,170,2013-03-01 00:23:00
4:29 PM,51.8,51.8,100,30.29,10.0,South,5.8,-,N/A,,Overcast,170,2013-03-01 00:29:00
4:34 PM,51.8,51.8,100,30.29,10.0,South,5.8,-,N/A,Rain,Light Rain,170,2013-03-01 00:34:00
4:39 PM,51.8,51.8,100,30.28,8.0,SSE,5.8,-,N/A,Rain,Light Rain,160,2013-03-01 00:39:00
4:44 PM,51.8,51.8,100,30.28,6.0,SSE,5.8,-,N/A,Rain,Light Rain,150,2013-03-01 00:44:00
4:54 PM,51.8,51.8,100,30.28,10.0,South,5.8,-,N/A,,Overcast,170,2013-03-01 00:54:00
4:58 PM,52.0,51.8,99,30.30,10.0,South,5.8,-,0.03,,Overcast,170,2013-03-01 00:58:00
5:03 PM,51.8,51.8,100,30.29,10.0,South,5.8,-,N/A,,Overcast,180,2013-03-01 01:03:00
5:18 PM,51.8,51.8,100,30.28,10.0,South,5.8,-,N/A,,Overcast,180,2013-03-01 01:18:00
5:21 PM,51.8,51.8,100,30.28,10.0,South,5.8,-,N/A,Rain,Light Rain,180,2013-03-01 01:21:00
5:31 PM,51.8,51.8,100,30.28,10.0,South,5.8,-,N/A,Rain,Light Rain,170,2013-03-01 01:31:00
5:34 PM,51.8,51.8,100,30.28,10.0,South,5.8,-,N/A,,Overcast,180,2013-03-01 01:34:00
5:37 PM,51.8,51.8,100,30.28,10.0,South,5.8,-,N/A,Rain,Light Rain,180,2013-03-01 01:37:00
5:52 PM,51.8,51.8,100,30.28,5.0,South,6.9,-,N/A,Rain,Light Rain,190,2013-03-01 01:52:00
5:57 PM,51.8,51.8,100,30.28,6.0,South,8.1,-,N/A,Rain,Light Rain,190,2013-03-01 01:57:00
5:58 PM,51.8,51.8,100,30.30,7.0,South,8.1,-,0.01,Rain,Light Rain,190,2013-03-01 01:58:00
6:03 PM,51.8,51.8,100,30.28,10.0,SSW,8.1,-,N/A,Rain,Light Rain,200,2013-03-01 02:03:00
6:08 PM,51.8,51.8,100,30.28,10.0,South,8.1,-,N/A,Rain,Light Rain,190,2013-03-01 02:08:00
6:13 PM,51.8,51.8,100,30.28,10.0,SSW,6.9,-,N/A,,Overcast,200,2013-03-01 02:13:00
6:15 PM,51.8,51.8,100,30.28,10.0,SSW,6.9,-,N/A,,Overcast,210,2013-03-01 02:15:00
6:23 PM,51.8,51.8,100,30.29,10.0,SSW,6.9,-,N/A,Rain,Light Rain,210,2013-03-01 02:23:00
6:58 PM,51.8,51.6,99,30.31,10.0,SSW,4.6,-,0.00,Rain,Light Rain,200,2013-03-01 02:58:00
7:08 PM,51.8,51.8,100,30.30,10.0,SSW,6.9,-,N/A,,Overcast,210,2013-03-01 03:08:00
7:16 PM,51.8,51.8,100,30.30,10.0,SSW,5.8,-,N/A,Rain,Light Rain,210,2013-03-01 03:16:00
7:29 PM,51.8,51.8,100,30.31,10.0,SSW,8.1,-,N/A,,Overcast,200,2013-03-01 03:29:00
7:35 PM,51.8,51.8,100,30.31,10.0,SSW,9.2,-,N/A,Rain,Light Rain,200,2013-03-01 03:35:00
7:44 PM,51.8,51.8,100,30.31,10.0,SSW,9.2,-,N/A,,Overcast,200,2013-03-01 03:44:00
7:58 PM,51.6,51.4,99,30.33,10.0,SSW,8.1,-,0.00,,Overcast,200,2013-03-01 03:58:00
8:33 PM,51.8,50.0,94,30.30,10.0,SSW,9.2,-,N/A,,Overcast,200,2013-03-01 04:33:00
8:58 PM,50.0,49.8,99,30.33,10.0,SSW,8.1,-,N/A,,Mostly Cloudy,200,2013-03-01 04:58:00
9:53 PM,51.8,50.0,94,30.33,10.0,SSW,9.2,-,N/A,,Mostly Cloudy,200,2013-03-01 05:53:00
9:58 PM,52.2,50.5,94,30.35,10.0,SSW,11.5,-,0.01,,Overcast,200,2013-03-01 05:58:00
10:58 PM,52.0,50.9,96,30.35,10.0,South,11.5,-,N/A,,Overcast,180,2013-03-01 06:58:00
11:28 PM,53.6,51.8,94,30.31,10.0,SSE,11.5,-,N/A,,Overcast,160,2013-03-01 07:28:00
11:58 PM,52.5,51.3,95,30.34,10.0,South,12.7,-,0.00,Rain,Light Rain,180,2013-03-01 07:58:00